Regional Weather Roundup
Issued by NWS Kansas City/Pleasant Hill, MO

Home | Current Version | Previous Version | Text Only | Print | Product List | Glossary On
Versions: 1 2 3 4 5 6 7 8 9 10 11 12 13 14 15 16 17 18 19 20 21 22 23 24 25 26 27 28 29 30 31 32 33 34 35 36 37 38 39 40 41 42 43 44 45 46 47 48 49 50
000
ASUS43 KEAX 130310
RWREAX

WEATHER ROUNDUP FOR EASTERN KANSAS AND NORTHWEST MISSOURI
NATIONAL WEATHER SERVICE KANSAS CITY/PLEASANT HILL MO
1000 PM CDT SAT JUL 12 2014

KSZ040-057-103>105-MOZ028-029-037-043-130400-
...KANSAS CITY METROPOLITAN AREA...

CITY           SKY/WX    TMP DP  RH WIND       PRES   REMARKS
K.C. INTL      CLEAR     83  68  60 SW16      29.97R
K.C. DOWNTOWN  CLEAR     87  68  52 S12       29.96R HX  90
LEES SUMMIT    CLEAR     84  69  60 S10       30.00R
OLATHE - IXD   CLEAR     80  70  71 S7        30.00R
OLATHE - OJC   CLEAR     81  70  69 S8        29.99R
LAWRENCE       CLEAR     84  69  60 S8        29.97R

$$

MOZ001>008-011>017-020>025-030>033-038>040-044>046-053-054-130400-
...NORTHERN AND CENTRAL MISSOURI...

CITY           SKY/WX    TMP DP  RH WIND       PRES   REMARKS
ST. JOSEPH     MOCLDY    83  70  64 S8        29.94R
MOSBY          CLEAR     82  68  61 S5        29.97R
WHITEMAN AFB   NOT AVBL
CLINTON        CLEAR     82  73  74 S8        30.02R
SEDALIA        CLEAR     79  72  79 S8        30.02R
WARSAW         NOT AVBL
MARSHALL         N/A     82  73  74 S7        30.00R HAZE
CHILLICOTHE      N/A     83  74  74 S7        29.96R
MOBERLY        MOCLDY    82  70  65 S8        29.99R
KIRKSVILLE     CLOUDY    82  73  74 SW10      29.96R

$$

MOZ041-047>049-056>058-063>065-088>090-097-130400-
...EASTERN AND SOUTHERN MISSOURI...

CITY           SKY/WX    TMP DP  RH WIND       PRES   REMARKS
ST. LOUIS INTL MOCLDY    88  70  55 SW12      30.01R HX  93
SPIRIT OF STL  CLEAR     83  70  64 S7        29.99R
COLUMBIA       CLEAR     79  71  76 S9        30.02R
JEFFERSON CITY CLEAR     84  70  62 S6        30.01R
MEXICO         PTCLDY    81  75  83 S9        30.01R
HANNIBAL       MOCLDY    82  68  61 S9        29.97R
ROLLA          CLEAR     77  69  76 S7        30.05R
LEBANON        CLEAR     79  70  73 S5        30.08R
OSAGE BEACH    CLEAR     81  70  69 S5        30.04R
SPRINGFIELD    CLEAR     78  69  73 SW7       30.07R
BRANSON        CLEAR     79  68  69 S5        30.10R
NEVADA         CLEAR     79  68  69 S7        30.04R
JOPLIN         CLEAR     81  67  62 S10       30.05R
WEST PLAINS    CLEAR     81  70  69 S5        30.10R
MALDEN         CLEAR     82  73  74 S5        30.07R

$$

IAZ060-094-KSZ022-034>040-054-083-096-NEZ052-066-093-130400-
...KANSAS...SOUTHEAST NEBRASKA AND IOWA...

CITY           SKY/WX    TMP DP  RH WIND       PRES   REMARKS
TOPEKA         CLEAR     85  67  54 S5        29.96R
MANHATTAN      CLEAR     84  67  56 S5        29.94R
EMPORIA        CLEAR     80  67  64 S10       29.99R
CHANUTE        CLEAR     80  68  66 S8        30.02R
WICHITA        PTCLDY    79  64  60 S8        29.98R
OMAHA          PTCLDY    74  68  81 N7        30.01R
LINCOLN        CLOUDY    77  67  71 N10       30.03R
FALLS CITY     CLEAR     79  75  87 N8        29.96R
LAMONI         MOCLDY    76  70  82 N5        29.96R
DES MOINES     MOCLDY    73  67  81 CALM      29.97R

$$




USA.gov is the U.S. government's official web portal to all federal, state and local government web resources and services.